Location: Nairn
(57.5833°N, 3.8667°W)
Time: 03:27:46
(UTC+00:00)

Cosmos 1025 Rocket - Visible Passes

Search period start: 01 December 2020 00:00
Search period end: 11 December 2020 00:00
Orbit: 593 x 619 km, 82.5° (Epoch: 30 November)

Date Brightness Start Highest point End Pass type
(mag) Time Alt. Az. Time Alt. Az. Time Alt. Az.
07 Dec 5.8 07:13:42 10° NE 07:14:10 10° NE 07:14:39 10° NE visible
08 Dec 5.5 07:25:33 10° NNE 07:27:49 14° NE 07:30:05 10° E visible
09 Dec 5.3 07:38:20 10° NNE 07:41:24 19° ENE 07:44:28 10° ESE visible
10 Dec 4.9 07:51:18 10° N 07:54:55 26° ENE 07:58:32 10° ESE visible
